{"data":{"norad_id":56397,"intl_designator":"2023-061Z","name":"STARLINK-6271","alt_names":[],"object_type":"PAYLOAD","status":"ACTIVE","operator":null,"country":"US","launch_date":"2023-05-04","launch_site_code":"AFETR","launch_vehicle":null,"mission":null,"orbit_class":"UNKNOWN","rcs_meters":null,"size_class":null,"mass_kg":null,"dimensions":null,"purposes":["comms"],"wikipedia_slug":null,"has_3d_model":false,"image_url":null,"decayed_at":null,"tle_current":{"epoch":"2026-05-25T05:00:55.187712Z","epoch_age_seconds":67113,"freshness":"FRESH","line1":"1 56397U 23061Z   26145.20897208 -.00000181  00000+0  29531-5 0  9991","line2":"2 56397  43.0013 115.2041 0000867 269.1024  90.9729 15.27573513168574","mean_motion":15.27573513,"eccentricity":8.67e-5,"inclination_deg":43.0013,"raan_deg":115.2041,"arg_perigee_deg":269.1024,"mean_anomaly_deg":90.9729,"bstar":2.9531e-6,"rev_number":16857,"period_min":94.267149027217,"perigee_km":482.47365400145,"apogee_km":483.66338703871,"semimajor_km":6861.2055205201,"source":"CELESTRAK","updated_at":"2026-05-25T13:38:18.014935Z"}}}